Location: WWIN Observatory
(34.8953°N, 91.9583°W)
Time: 13:47:21
(UTC-06:00)

Daily predictions for brighter satellites

Satellite Brightness Start Highest point End
(mag) Time Altitude Azimuth Time Altitude Azimuth Time Altitude Azimuth
Cosmos 2333 Rocket 2.5 17:42:06 10° SSW 17:47:43 75° WNW 17:53:23 10° NNE
IDEFIX/ARIANE 42P 2.9 17:42:48 10° S 17:48:00 76° WSW 17:53:15 10° NNW
Cosmos 2219 Rocket 3.0 17:43:29 10° SW 17:49:00 56° WNW 17:54:32 10° NNE
Cosmos 1626 3.8 17:50:05 10° SE 17:52:26 16° E 17:54:47 10° NE
Cosmos 1328 Rocket 4.0 17:48:20 10° NNW 17:52:45 68° W 17:57:09 10° S
Milstar 3 3.8 17:47:30 10° W 17:54:15 44° SSW 18:00:43 10° ESE
MONITOR-E 4.4 17:52:24 10° SSE 17:55:26 47° ENE 17:58:30 10° N
SJ-6B 4.5 17:55:25 10° ESE 17:57:47 15° ENE 18:00:11 10° NNE
Aureole 2 Rocket 2.6 17:54:16 10° S 17:57:49 65° ESE 18:01:45 10° NNE
Cosmos 1151 Rocket 3.0 17:55:35 10° N 17:59:50 67° E 18:04:07 10° SSE
Cosmos 371 Rocket 4.4 17:55:24 10° SW 18:00:01 47° WNW 18:04:39 10° N
Cosmos 1703 4.1 17:57:18 10° SSE 18:00:39 28° E 18:04:02 10° NNE
Cosmos 1515 Rocket 3.9 17:58:56 10° NNW 18:03:22 71° W 18:07:46 10° S
Cosmos 2278 Rocket 2.2 17:57:50 10° NNW 18:03:29 63° ENE 18:09:04 10° SSE
SMAP 3.9 17:59:11 10° S 18:03:44 57° W 18:08:20 10° NNW
Cosmos 1805 Rocket 4.1 18:02:30 10° SSE 18:06:37 38° E 18:10:44 10° NNE
Cosmos 1455 3.8 18:05:16 10° NE 18:07:26 15° ENE 18:09:36 10° ESE
SKYMED 2 3.5 18:05:41 10° NNE 18:10:02 78° E 18:14:22 10° S
Cosmos 1726 2.2 18:07:26 10° N 18:11:13 88° W 18:14:59 10° S
Cosmos 372 Rocket 3.9 18:09:32 10° N 18:14:36 65° ENE 18:19:39 10° SSE
FREGAT/IRIS 4.1 18:15:37 10° ESE 18:17:47 18° ENE 18:19:57 10° NNE
Cosmos 540 Rocket 4.3 18:12:55 10° SSW 18:17:58 53° WNW 18:23:02 10° N
Atlas Centaur 2 4.4 18:15:49 10° WSW 18:18:51 15° SSW 18:21:33 10° S
Meteor 1-27 4.2 18:15:06 10° N 18:20:56 72° E 18:26:44 10° SSE
OAO 1 Rocket 4.5 18:17:35 10° W 18:22:54 85° S 18:27:27 14° ESE
Sich 1 3.6 18:19:54 10° SSE 18:24:00 37° E 18:28:05 10° NNE
Cosmos 2237 Rocket 3.2 18:18:53 10° SW 18:24:16 47° WNW 18:29:43 10° N
Cosmos 1340 Rocket 2.8 18:20:51 10° S 18:24:47 87° W 18:28:44 10° N
SL-14 R/B 4.5 18:22:07 10° SSW 18:25:52 45° W 18:29:42 10° N
Cosmos 1300 3.5 18:23:18 10° NNW 18:27:03 54° W 18:30:47 10° S
USA 215 3.9 18:21:36 11° E 18:27:07 36° NE 18:32:59 10° NNW
Cosmos 1484 Rocket 3.5 18:24:56 10° S 18:28:47 59° W 18:32:43 10° NNW
Cosmos 2058 3.4 18:25:14 10° SSW 18:29:17 60° W 18:33:21 10° N
Cosmos 1461 2.9 18:25:28 10° SSW 18:29:43 80° WNW 18:33:36 11° NNE
SL-16 R/B 2.1 18:25:28 10° SSW 18:31:06 81° ESE 18:36:47 10° NNE
Cosmos 1633 Rocket 3.5 18:27:21 10° SSE 18:31:27 39° E 18:35:34 10° NNE
Cosmos 304 Rocket 4.1 18:33:53 10° SSW 18:38:40 68° WNW 18:43:27 10° NNE
BREEZE-M DEB (TANK) 3.9 18:41:02 10° W 18:43:01 21° NNW 18:44:00 17° N
Cosmos 2297 3.6 18:40:29 10° NNW 18:46:10 66° ENE 18:51:51 10° SSE
OTV 4 2.2 18:46:44 10° W 18:49:23 29° SSW 18:50:55 18° SSE
Cosmos 1356 Rocket 3.3 18:46:58 10° S 18:50:57 83° W 18:54:57 10° N
Meteor 1-28 Rocket 4.4 18:47:48 10° N 18:51:20 41° WNW 18:54:50 10° SW
Coronas F rocket 3.5 18:54:22 10° S 18:54:53 15° S 18:54:53 15° S
Cosmos 1900 4.2 18:52:41 10° NNW 18:57:38 65° ENE 19:01:59 13° SE
Aureole 1 Rocket 3.6 18:53:40 10° S 18:58:35 70° ESE 19:05:12 10° NNE
Cosmos 1707 Rocket 3.5 18:54:27 10° N 18:58:47 85° W 19:03:08 10° S
CZ-3A R/B 3.2 18:54:43 10° NNW 18:59:09 44° NE 19:01:31 29° E
Spot 2 Rocket 3.7 18:57:08 10° SE 19:01:55 44° ENE 19:06:41 10° N
Resurs 01 Rocket 2.2 19:03:50 38° NE 19:03:50 38° NE 19:07:04 10° N
Cosmos 1184 Rocket 3.2 19:02:04 10° SSW 19:05:23 64° W 19:06:41 33° N
Cosmos 1666 Rocket 4.0 19:01:28 10° SSW 19:05:44 61° W 19:10:04 10° N
FENGYUN 3A 3.6 19:02:02 10° SSE 19:07:14 55° ENE 19:12:28 10° N
USA 229 DEB 3.6 19:01:01 10° SSW 19:07:51 82° ESE 19:12:13 25° NE
USA 229 3.6 19:01:07 10° SSW 19:07:57 81° ESE 19:12:16 25° NE
Lacrosse 5 rocket 1.8 19:04:21 10° NW 19:08:09 56° SW 19:10:49 19° SSE
Tiangong 1 2.9 19:07:15 10° SSW 19:08:40 21° S 19:08:40 21° S
BREEZE M DEB (TANK) 4.0 19:09:21 10° NW 19:09:43 14° NW 19:09:43 14° NW
METEOR-M 4.5 19:07:01 10° S 19:12:20 67° WSW 19:17:40 10° NNW
Cosmos 1933 Rocket 4.0 19:12:56 10° S 19:16:13 45° SSE 19:16:13 45° SSE
Iridium 4 Rocket 3.0 19:12:51 10° S 19:17:30 90° ESE 19:19:42 29° N
ALOS 2.1 19:18:12 10° SSE 19:22:51 84° E 19:27:33 10° N
Cosmos 923 Rocket 3.8 19:18:07 10° SSW 19:23:20 86° ESE 19:24:48 49° NNE
FengYun 1-2 T 4.1 19:20:33 10° SSE 19:26:07 88° E 19:31:41 10° NNW
Cosmos 1626 4.5 19:24:32 10° SW 19:27:34 23° WNW 19:30:38 10° NNW
Cosmos 1680 Rocket 3.3 19:25:25 10° S 19:30:32 75° ESE 19:30:32 75° ESE
SJ-6B 4.5 19:28:23 10° SSW 19:32:06 35° W 19:35:54 10° NNW
Cosmos 292 Rocket 3.7 19:30:13 10° SSW 19:34:49 80° WSW 19:34:49 80° WSW
Cosmos 1603 3.6 19:30:03 10° SSW 19:35:38 81° WNW 19:36:59 54° N
Intelsat 5-1 Rocket 4.3 19:35:53 10° SW 19:38:06 17° S 19:38:06 17° S
Cosmos 1470 Rocket 4.1 19:34:17 10° SSW 19:37:52 55° SW 19:37:52 55° SW
Cosmos 2242 Rocket 4.1 19:35:50 10° NNW 19:40:10 57° W 19:44:31 10° S
Cosmos 1455 4.2 19:39:53 10° NNW 19:43:09 27° W 19:46:23 10° SSW
Cosmos 2026 Rocket 3.8 19:40:56 10° S 19:47:10 86° E 19:47:46 74° NNE
NOSS 3-1 (C) 4.1 19:55:00 10° SSW 19:58:31 40° SSW 19:58:31 40° SSW
USA 215 3.5 20:08:59 58° SSW 20:09:50 62° SW 20:16:19 10° NW
